User: anonymous   Login
Location: Caltech
(34.1382°N, 118.1253°W)
Time: 02:27:01
(UTC-08:00)
Language:

Cosmos 1025 Rocket - Orbit

View from above orbital plane
View from above orbital plane
View from above satellite
View from above satellite

Ground track
Ground track

The orbit data is extracted from the following two-line orbital elements,

1 10974U 78067B   18020.88081263 +.00000087 +00000-0 +69421-5 0  9998
2 10974 082.4842 323.0240 0017048 347.2507 012.8276 14.87267547118808
Epoch (UTC): 20 January 2018 21:08:22
Eccentricity: 0.0017048
inclination: 82.4842°
perigee height: 594 km
apogee height: 618 km
right ascension of ascending node: 323.0240°
argument of perigee: 347.2507°
revolutions per day: 14.87267547
mean anomaly at epoch: 12.8276°
orbit number at epoch: 11880

The dashed part of the orbit path shows where the satellite is in the earth's shadow,  

DLR